This is the latest recevied weather packets stored in our database for station/object JI6FPP-13. If no packets are shown the sender has not sent any weather packets the latest 10 day(s).
| Time | Temp. | Humidity | Pressure | Rain* | Wind** | Luminosity | Snow |
|---|---|---|---|---|---|---|---|
| 1777940180 | 20.56° C | 33% | 1015 hPa | 0 mm | - | - | - |
| 1777939579 | 20.56° C | 34% | 1015 hPa | 0 mm | - | - | - |
| 1777938979 | 20° C | 36% | 1015 hPa | 0 mm | - | - | - |
| 1777938379 | 18.33° C | 37% | 1015 hPa | 0 mm | - | - | - |
| 1777937779 | 17.78° C | 37% | 1014 hPa | 0 mm | - | - | - |
| 1777937179 | 17.78° C | 41% | 1014 hPa | 0 mm | - | - | - |
| 1777936578 | 16.67° C | 43% | 1014 hPa | 0 mm | - | - | - |
| 1777935979 | 15.56° C | 46% | 1014 hPa | 0 mm | - | - | - |
| 1777935379 | 15° C | 48% | 1014 hPa | 0 mm | - | - | - |
| 1777934779 | 14.44° C | 51% | 1016 hPa | 0 mm | - | - | - |
| 1777934179 | 13.33° C | 56% | 1015 hPa | 0 mm | - | - | - |
| 1777933580 | 12.78° C | 61% | 1015 hPa | 0 mm | - | - | - |
| 1777932980 | 12.22° C | 62% | 1015 hPa | 0 mm | - | - | - |
| 1777932379 | 11.67° C | 62% | 1015 hPa | 0 mm | - | - | - |
| 1777931779 | 11.11° C | 63% | 1015 hPa | 0 mm | - | - | - |
| 1777931179 | 11.11° C | 65% | 1015 hPa | 0 mm | - | - | - |
| 1777930579 | 10.56° C | 66% | 1015 hPa | 0 mm | - | - | - |
| 1777929980 | 10° C | 66% | 1015 hPa | 0 mm | - | - | - |
| 1777929380 | 10° C | 65% | 1014 hPa | 0 mm | - | - | - |
| 1777928779 | 9.44° C | 64% | 1014 hPa | 0 mm | - | - | - |
| 1777928179 | 9.44° C | 63% | 1014 hPa | 0 mm | - | - | - |
| 1777927580 | 9.44° C | 63% | 1014 hPa | 0 mm | - | - | - |
| 1777926980 | 10° C | 64% | 1014 hPa | 0 mm | - | - | - |
| 1777926380 | 10° C | 64% | 1014 hPa | 0 mm | - | - | - |
| 1777925780 | 10° C | 65% | 1014 hPa | 0 mm | - | - | - |
* Rain latest hour (hover to see other rain measurements)
** Current wind speed in m/s (hover to see current wind gust speed)